Home > Weather > Mandurah > Past weeks

Flag for Australia Past Weather in Mandurah, Western Australia, Australia — Yesterday and Last 2 Weeks

Now
60 °F

Cool.


Feels Like: 60 °F
Forecast: 60 / 62 °F
Wind: 16 mph from North

Location: Mandurah Aws

Current Time: Jul 29, 2016 at 10:19:48 AM

Latest Report: Jul 29, 2016 at 9:00 AM


Visibility: N/A

Pressure: 29.95 "Hg

Humidity: 75%

Dew Point: 52 °F

Location of MandurahLocation

Past Weather in Mandurah — Graph

°F

Mandurah Temperature Yesterday

Maximum temperature yesterday: 66 °F (at 3:00 PM)
Minimum temperature yesterday: 53 °F (at 6:00 AM)
Average temperature yesterday: 59 °F

High & Low Weather Summary for the Past Weeks

 TemperatureHumidityPressure
High66 °F (Jul 28, 3:00 PM)99% (Jul 16, 2:00 AM)30.39 "Hg (Jul 16, 2:00 AM)
Low41 °F (Jul 24, 6:00 AM)48% (Jul 22, 3:00 PM)29.72 "Hg (Jul 16, 6:00 PM)
Average56 °F75%30.11 "Hg
* Reported Jul 14 9:00 AM — Jul 29 9:00 AM, Mandurah, Weather by CustomWeather, © 2016

Note: Actual official high and low records may vary slightly from our data, if they occured in-between our weather recording intervals... More about our weather records

Advertising

Mandurah Weather History for the Previous 24 Hours

Scroll right to see more
 ConditionsComfort  
Time TempWeatherWind HumidityBarometerVisibility
9:00 AM
Fri, Jul 29
60 °FCool.16 mph75%29.95 "HgN/A
8:00 AM58 °FCool.6 mph81%29.97 "HgN/A
6:00 AM57 °FCool.5 mph77%29.98 "HgN/A
5:00 AM56 °FCool.2 mph81%29.99 "HgN/A
3:00 AM54 °FCool.1 mph90%30.02 "HgN/A
2:00 AM54 °FCool.2 mph94%30.05 "HgN/A
12:00 AM56 °FCool.3 mph92%30.08 "HgN/A
11:00 PM
Thu, Jul 28
57 °FCool.1 mph87%30.10 "HgN/A
9:00 PM60 °FCool.2 mph84%30.13 "HgN/A
8:00 PM60 °FCool.2 mph83%30.13 "HgN/A
6:00 PM62 °FCool.1 mph73%30.12 "HgN/A
5:00 PM64 °FMild.6 mph65%30.11 "HgN/A
3:00 PM66 °FMild.2 mph62%30.09 "HgN/A
2:00 PM65 °FMild.6 mph63%30.11 "HgN/A
12:00 PM64 °FMild.No wind63%30.15 "HgN/A
11:00 AM62 °FCool.1 mph66%30.17 "HgN/A
Weather by CustomWeather, © 2016

See weather overviewHow to use our weather pages